Regional Weather Roundup
Issued by NWS

Home | Current Version | Previous Version | Graphics & Text | Print | Product List | Glossary On
Versions: 1 2 3 4 5 6 7 8 9 10 11 12 13 14 15 16 17 18 19 20 21 22 23 24 25 26 27 28 29 30 31 32 33 34 35 36 37 38 39 40 41 42 43 44 45 46 47 48 49 50
000
ASUS43 KLMK 301210
RWRKY
KENTUCKY REGIONAL WEATHER ROUNDUP
NATIONAL WEATHER SERVICE LOUISVILLE KY
800 AM EDT SAT JUL 30 2016

NOTE "FAIR" INDICATES FEW OR NO CLOUDS BELOW 12,000 FEET
WITH NO SIGNIFICANT WEATHER AND/OR OBSTRUCTIONS TO VISIBILITY.

KYZ001>023-026-027-061>063-070>075-301300-
WESTERN AND SOUTH CENTRAL KENTUCKY

CITY           SKY/WX    TMP DP  RH WIND       PRES   REMARKS
PADUCAH        MOSUNNY   71  69  93 S5        29.97R FOG
HENDERSON      MOSUNNY   72  70  94 CALM      29.95R
OWENSBORO      SUNNY     72  72 100 CALM      29.98R
HOPKINSVILLE   CLOUDY    73  72  97 SW7       29.99R
BOWLING GREEN  CLOUDY    73  71  93 SW8       29.99R
GLASGOW        CLOUDY    72  72 100 SW5       30.00R
$$

KYZ024-025-028>034-038-045-046-053-301300-
NORTH CENTRAL KENTUCKY

CITY           SKY/WX    TMP DP  RH WIND       PRES   REMARKS
LOUISVILLE/SDF CLOUDY    73  71  93 SW5       29.97R FOG
LOUISVILLE/LOU CLOUDY    74  71  91 SW5       29.97R FOG
FORT KNOX      CLOUDY    70  70 100 NW3       29.97R FOG
$$

KYZ035>037-039>044-047>052-055>060-089>105-301300-
NORTHEAST KENTUCKY

CITY           SKY/WX    TMP DP  RH WIND       PRES   REMARKS
LEXINGTON      CLOUDY    73  69  87 SW9       29.99R
COVINGTON      FOG       70  70 100 W5        29.96R VSB 1/4
FRANKFORT      CLOUDY    71  69  93 W5        29.97R FOG
$$

KYZ054-064>069-076>088-106>120-301300-
SOUTHEAST KENTUCKY

CITY           SKY/WX    TMP DP  RH WIND       PRES   REMARKS
JACKSON        CLOUDY    69  68  96 CALM      30.01S FOG
LONDON         CLOUDY    72  68  87 SW3       30.02R
SOMERSET       CLOUDY    72  72 100 CALM      30.02S
MIDDLESBORO    LGT RAIN  71  71 100 CALM      30.03S
MONTICELLO     CLOUDY   N/A N/A N/A MISG      30.03R
$$





USA.gov is the U.S. government's official web portal to all federal, state and local government web resources and services.